THORAD DELTA 1 DEB, 14474

Orbit data source: Space-Track

THORAD DELTA 1 DEB, 14474 is space debris in SSO originally from a launch on Fri, 15 Nov 1974 UTC launched from the Air Force Western Test Range (AFWTR). Debris objects in space refer to the collection of defunct objects orbiting the Earth. Examples of debris include non-operational satellites, rocket bodies, and fragments generated from explosions, collisions, or faulty payload assembly.

Loading next visibility...
Identifier
14474, 1974-089EQ
Orbit
SSO
Country
Flag of USUS
Related business
Manufacturer
Unknown
Mission
Spacecraft
Bus & Motor
Unknown
Mass
Unknown
Launch date (UTC)
1974-11-15 (51 years ago)
Launch vehicle
Unknown
Launch site
Air Force Western Test Range (AFWTR)
Object type
Payload
Rocket body
Debris
Shape & HBR
Unknown shape, 0.2 m
Radar Cross Section
Small (<0.1 m²)

Expand to show TLE details & history
Last TLE update: 1 day ago

TLE from 1 day ago
0 THORAD DELTA 1 DEB
1 14474U 74089EQ  25338.61359093  .00000906  00000-0  93141-2 0  9990
2 14474 100.6905 258.0780 0282104  68.1692  50.9221 12.08267047896944
Epoch: 2025-12-04T14:43Z
TLE epoch observation values (Epoch: 2025-12-04T14:43:34.256Z)
Latitude
56.85787°
Longitude
160.23845°
Altitude
1,514.672 km
Speed
7.174 km/s
True Right ascension
06h 19m 11s
True Declination
56° 42' 55"
Sunlit
Object was in full shadow at epoch
Visualization orbit readout
Latitude
Unknown
Longitude
Unknown
Altitude
Unknown
Speed
Unknown
Apparent Right ascension
Unknown
Apparent Declination
Unknown
Sunlit
N/A
Visualization observer readout
Local Sidereal Time
12:41:14
Azimuth
Unknown
Elevation
Unknown
Doppler factor
Unknown
Orbital elements
Apogee altitude
1,867.839 km
Perigee altitude
1,415.359 km
Semi-major axis
8,019.736 km
Eccentricity
0.02821
Inclination
100.6905°
RAAN
258.078°
Arg. of periapsis
68.1692°
True anomaly
53.48773°
Mean anomaly
50.9221°
Eccentric anomaly
52.19924°
Mean motion
3.02206 °/min
Orbital period
119.12 mins
BSTAR
0.0093141
Loading maneuver chart data...
Computing Atmospheric mass density...

Documentation

Showing up to 5 results
|